Temperature
16 16 15 15 14 14 13 13 13 13 13 13 13 13 13 13 14 14 14 14 14 13 13 13 14 14 14 14 14 14 14 14 14 13 13 13 13 14 14 14 14 14 14
16 15 15 14 14 13 13 13 12 12 12 12 12 12 12 13 13 13 13 13 13 13 13 13 13 13 13 13 13 14 14 14 13 13 12 13 13 13 13 14 14 14 13
16 15 14 14 13 13 13 12 12 11 11 11 11 12 12 12 12 12 12 12 12 12 12 12 12 13 13 13 13 13 13 13 13 13 12 12 12 13 13 13 13 13 13
16 15 14 14 13 13 12 12 11 11 11 11 11 11 11 11 12 12 12 12 12 11 12 12 12 12 12 13 13 13 13 12 12 12 12 12 12 12 13 13 12 12 12
16 15 14 14 13 13 12 12 11 11 11 11 11 11 11 11 11 11 11 11 11 11 11 11 12 12 12 12 12 12 12 12 12 12 12 12 12 12 12 12 12 12 12
16 15 14 14 13 13 12 12 11 11 11 11 11 11 11 11 11 11 11 11 11 11 11 11 11 12 12 12 12 12 12 12 12 12 12 11 11 11 11 11 11 11 11
16 16 15 14 13 13 12 12 11 11 11 11 11 11 11 11 11 11 11 11 11 11 11 11 11 11 11 11 11 11 11 11 11 11 11 10 10 10 10 11 10 10 10
16 15 15 14 13 13 12 12 11 11 11 11 11 11 11 11 10 11 11 11 11 11 11 11 11 11 11 11 11 11 11 11 10 10 10 10 10 10 10 10 10 10 10
14 15 15 14 13 13 12 12 12 11 11 11 11 11 11 11 11 11 11 11 11 11 11 11 11 11 11 11 11 11 10 10 10 10 10 10 10 10 10 10 10 10 10
12 13 14 14 14 13 13 12 12 11 11 11 11 11 11 11 11 11 11 11 11 11 11 11 11 10 10 10 10 10 10 10 10 10 10 10 9 9 9 9 9 9 9
11 12 13 13 13 13 13 12 12 11 11 11 11 11 11 11 11 11 11 11 11 11 10 10 10 10 10 10 10 10 10 10 10 10 9 9 9 9 9 9 9 8 8
10 11 12 12 13 13 13 12 12 11 11 11 11 11 11 11 11 11 11 11 11 10 10 10 10 10 10 10 10 10 10 10 9 9 9 9 8 8 8 8 8 8 8
9 10 10 11 12 13 13 12 12 11 11 11 11 11 11 11 11 11 11 11 10 10 10 10 10 10 9 9 9 9 9 9 9 9 8 8 8 8 8 8 8 8 8
8 9 9 10 11 12 12 12 12 11 11 11 11 11 11 11 11 11 11 10 10 10 10 10 10 9 9 9 9 9 9 9 8 8 8 8 8 8 7 7 7 7 7
8 8 9 9 10 11 12 12 12 12 12 11 11 11 11 11 11 11 11 10 10 10 10 10 10 9 9 9 9 9 9 8 8 8 8 7 7 7 7 7 7 7 7
8 8 8 9 9 11 12 12 12 12 12 11 12 12 12 12 11 11 11 10 10 10 10 10 10 10 9 9 9 9 9 8 8 8 7 7 7 7 7 7 7 7 7
7 7 8 8 9 10 11 12 11 11 11 11 11 11 11 11 11 11 10 10 10 10 10 10 10 10 10 9 9 9 9 8 8 8 7 7 7 7 7 7 7 7 6
7 7 7 8 8 9 10 11 11 11 11 11 10 11 11 11 11 11 10 10 10 10 10 10 10 10 10 10 9 9 9 9 8 8 8 7 7 7 7 7 6 6 6
7 7 7 8 8 9 10 11 11 11 11 11 11 10 10 11 11 10 10 10 10 10 10 10 10 10 10 10 10 9 9 9 9 8 8 8 7 7 7 7 6 6 6
7 7 7 7 8 9 10 10 11 11 11 11 11 11 11 10 10 10 10 10 10 10 10 10 10 10 10 10 10 10 9 9 9 8 8 8 8 7 7 7 6 6 6
6 7 7 7 8 8 9 10 10 11 11 11 11 11 11 11 11 11 10 10 10 10 10 10 10 10 10 10 10 10 10 9 9 9 9 8 8 7 7 7 6 6 6
6 6 7 7 7 8 9 10 10 11 11 11 11 11 11 11 11 11 11 11 10 10 11 10 10 10 10 10 10 10 10 10 9 9 9 9 8 8 7 7 6 6 5
6 6 7 7 7 8 9 10 10 10 11 11 11 11 11 11 11 11 11 10 10 10 10 10 10 10 10 10 10 10 10 10 10 10 9 9 9 8 8 7 7 6 5
6 6 7 7 8 8 9 10 10 10 11 11 11 11 11 11 11 10 10 10 10 10 10 10 10 10 10 10 10 10 10 10 10 10 10 9 9 9 8 7 7 6 5
6 6 7 7 8 9 9 10 10 11 11 11 11 12 11 11 11 11 11 10 10 10 10 10 10 10 10 10 10 11 10 10 10 10 10 10 9 9 8 7 7 6 5
6 6 7 7 8 9 10 10 11 11 11 11 12 12 12 11 11 11 11 11 10 10 10 10 10 11 11 11 11 11 11 11 10 10 10 10 9 9 8 7 7 6 5
Wind_Speed
4 3 3 1 2 3 4 5 6 6 7 6 6 5 4 3 2 2 3 4 5 4 4 5 5 4 4 3 3 3 2 3 4 2 4 4 6 6 6 6 7 5 4
5 4 4 2 1 1 3 4 5 6 6 6 5 5 5 4 2 2 2 4 5 6 6 6 6 6 6 4 4 5 4 4 5 5 4 6 6 5 5 6 5 6 6
6 6 4 3 2 1 1 3 4 5 6 6 5 6 6 6 6 7 8 8 9 8 8 7 7 8 7 6 6 6 6 7 6 6 4 4 4 4 4 5 5 5 5
7 7 6 6 5 3 2 1 3 4 4 5 5 6 6 7 8 9 10 10 10 9 8 8 7 8 7 8 8 9 9 10 8 7 5 5 4 3 4 4 5 4 4
8 8 8 7 6 5 3 2 2 2 3 4 4 5 6 5 6 7 8 10 9 10 9 8 9 10 11 9 9 9 9 8 7 7 5 5 5 5 4 4 4 4 4
9 9 8 8 7 6 5 4 2 1 1 2 3 3 5 5 7 9 9 9 9 10 9 8 9 10 12 14 14 12 11 9 8 6 5 5 4 4 4 4 4 5 5
9 9 9 10 9 8 7 5 4 3 1 1 2 4 5 5 8 10 12 9 9 8 7 8 8 8 9 8 12 13 12 12 9 6 5 3 3 3 4 5 5 3 2
9 10 10 11 10 9 8 7 6 4 3 3 4 5 5 6 10 12 14 10 9 8 8 8 8 7 7 8 9 9 8 7 6 5 4 2 1 1 2 1 1 2 3
8 10 11 12 12 11 10 9 6 5 5 4 5 6 6 5 10 13 12 8 9 8 7 7 9 8 11 12 10 8 7 7 7 10 7 6 7 7 4 5 5 5 4
11 10 10 12 13 14 13 10 7 6 6 6 6 6 7 6 9 13 12 8 8 6 6 6 9 10 12 12 9 8 7 5 5 7 9 9 8 8 9 5 3 3 2
13 12 10 12 14 14 13 9 8 8 7 7 7 6 7 7 9 12 12 7 8 7 5 4 4 11 12 12 9 7 6 5 6 8 7 6 6 6 6 5 4 3 3
13 13 11 10 13 13 13 11 11 10 9 9 7 7 5 5 7 10 12 11 11 8 6 4 4 9 11 10 8 9 12 9 7 7 6 5 5 5 5 6 6 5 4
13 13 12 10 12 12 14 14 12 11 10 9 9 8 6 4 5 9 12 14 14 7 6 8 8 8 9 7 9 11 9 7 6 6 5 3 2 3 4 5 7 6 6
12 12 11 10 10 11 12 13 13 13 12 11 10 9 7 6 5 5 5 8 10 8 6 6 7 7 7 6 6 6 5 5 5 5 3 3 3 4 5 4 5 5 5
10 11 11 10 10 11 12 13 15 14 15 13 12 11 11 9 10 14 11 8 7 7 7 4 3 3 3 3 4 4 4 5 5 3 4 4 4 4 4 4 4 4 5
8 9 9 10 8 9 11 9 12 13 18 19 17 14 12 14 17 18 16 16 15 15 8 4 3 3 4 4 4 3 3 4 4 4 4 4 3 3 3 4 4 4 4
8 8 8 10 8 8 10 11 9 6 12 18 19 19 16 17 20 20 18 16 16 14 5 5 4 4 4 5 6 5 4 4 4 4 4 3 3 3 3 3 3 4 4
9 9 8 8 7 7 9 11 12 12 10 7 10 16 19 20 21 20 18 13 7 5 4 5 5 5 5 7 7 5 5 4 4 4 3 3 3 3 3 2 2 2 3
9 7 6 7 8 8 9 11 11 12 12 9 5 5 12 16 17 18 17 7 8 6 5 5 5 5 6 7 8 7 6 6 5 4 4 4 3 3 2 2 2 3 3
9 12 9 7 8 8 9 11 11 12 12 11 11 9 10 8 7 9 7 6 8 7 7 7 6 6 7 7 8 8 7 6 6 5 5 5 4 4 4 3 3 2 2
8 9 10 8 8 8 9 12 13 13 13 12 12 13 19 15 14 14 11 8 9 8 8 7 7 7 7 7 8 9 9 7 7 6 6 6 5 4 4 4 4 3 3
8 7 6 6 7 7 8 11 12 13 14 14 11 11 17 11 11 12 11 10 9 8 8 8 7 7 9 10 9 9 8 8 8 7 7 7 6 5 5 4 4 3 3
8 8 7 7 7 7 8 10 12 13 14 13 13 13 13 9 10 11 11 10 8 8 7 7 7 7 7 7 8 10 10 10 10 10 9 8 7 6 6 5 6 5 4
8 8 8 7 7 6 8 10 13 14 14 14 13 13 14 13 11 11 10 9 8 8 7 7 8 10 12 9 9 11 12 13 13 11 12 10 9 7 7 6 6 7 6
8 8 7 7 7 6 8 11 12 14 14 14 14 13 13 12 11 10 9 9 10 9 10 9 8 9 12 13 11 13 17 19 18 15 12 10 10 10 9 8 7 6 5
8 8 7 6 6 6 8 10 12 13 14 14 13 13 13 13 12 11 10 9 9 9 9 9 10 11 11 13 16 18 19 19 20 19 14 9 10 10 9 8 9 7 7
Wind_Direction
166 151 133 107 42 22 2 343 334 332 335 337 335 337 331 305 249 201 203 183 172 166 166 150 135 123 116 117 123 118 115 125 119 61 23 14 25 19 6 15 28 35 37
177 168 160 151 111 48 357 339 340 341 341 343 346 355 5 14 34 93 120 122 126 125 120 114 109 107 92 88 92 90 88 96 112 95 37 24 25 15 16 23 23 40 41
177 171 172 171 164 169 312 331 339 342 349 358 12 21 25 36 58 72 82 84 86 87 91 97 98 98 88 80 80 79 80 83 85 93 58 22 14 9 11 16 25 28 36
182 178 184 190 188 194 211 297 323 337 356 9 19 28 41 54 70 78 82 82 83 81 79 81 82 88 89 85 83 83 88 85 80 78 59 28 11 345 16 11 13 16 20
187 189 196 193 186 187 194 222 297 340 360 10 29 33 43 62 77 89 95 97 92 87 80 77 75 78 78 83 92 91 92 90 82 76 63 44 23 14 360 345 11 356 4
197 200 195 185 185 189 195 202 227 283 334 29 37 48 51 70 90 96 100 100 101 98 90 78 72 67 74 77 82 86 94 99 96 87 72 61 31 11 0 16 22 28 3
209 203 192 187 189 193 193 195 207 219 200 109 77 84 74 75 100 108 108 106 103 101 96 86 82 71 74 80 73 69 68 78 97 112 96 79 53 12 26 28 29 45 13
224 209 196 191 193 190 188 196 203 199 184 160 134 118 98 91 107 111 105 97 93 90 91 95 91 72 79 93 82 68 57 49 56 74 103 102 93 63 69 48 354 18 339
256 228 206 194 191 188 191 195 195 186 184 172 154 143 124 104 107 113 108 101 95 83 80 85 93 86 87 91 85 73 52 26 40 58 74 74 56 54 60 50 35 42 6
300 272 231 200 192 192 194 190 183 181 183 168 159 156 143 128 118 121 119 116 107 98 80 71 84 96 91 90 89 84 67 35 43 55 51 42 38 38 48 65 83 69 33
315 301 262 215 199 194 190 182 176 176 173 170 163 161 153 146 131 132 135 134 136 127 116 101 91 100 95 92 91 87 93 97 78 73 60 41 31 29 26 27 50 94 83
319 311 287 235 207 196 184 182 178 174 173 173 166 160 160 156 143 142 146 151 149 139 144 147 137 113 101 94 87 87 89 87 78 69 59 42 31 20 8 17 29 45 72
322 316 307 267 218 191 184 183 179 178 180 180 175 172 169 165 162 155 150 151 151 141 154 161 150 120 95 84 85 87 83 83 81 76 65 41 11 6 20 23 20 23 27
317 316 312 289 232 201 187 184 182 185 186 184 183 180 170 164 166 160 144 142 142 131 132 146 130 105 88 80 76 74 79 97 104 98 84 40 27 34 32 29 29 20 27
309 315 316 302 249 208 194 190 187 191 190 186 188 183 176 181 189 174 161 160 159 153 134 107 98 96 88 75 73 76 80 86 88 82 75 58 45 42 25 18 35 40 40
293 308 312 308 269 218 195 189 193 188 188 186 184 180 187 185 174 177 176 172 165 154 136 138 151 152 147 147 142 125 106 108 113 107 90 81 69 57 35 20 34 43 33
269 288 303 299 276 224 192 182 176 177 184 185 184 183 180 174 172 177 178 171 165 153 138 156 164 171 169 163 160 153 153 150 139 125 112 102 93 73 59 35 25 31 26
259 276 294 291 281 237 198 187 181 176 173 178 194 192 179 171 171 169 160 141 149 159 160 167 175 176 170 165 165 162 158 151 141 140 135 124 111 99 77 53 43 44 38
257 264 280 293 283 246 206 187 181 178 175 165 143 165 178 166 162 161 154 154 167 178 181 177 174 170 172 169 169 168 164 162 160 157 158 155 145 126 104 80 75 61 69
256 262 273 287 285 250 205 186 179 175 170 168 170 161 152 145 157 171 182 172 172 179 182 183 181 175 174 173 171 169 168 167 165 168 174 174 168 154 141 128 118 104 90
254 257 267 278 274 247 207 187 179 175 173 174 174 172 169 174 178 182 187 184 181 183 184 184 181 180 180 178 175 174 174 179 180 179 180 181 175 169 161 151 146 137 128
252 248 245 259 265 246 208 188 179 176 176 172 167 169 176 175 177 182 189 193 191 186 182 180 184 186 186 186 184 180 181 185 188 186 185 184 182 176 164 157 154 146 139
250 247 245 250 257 239 207 189 180 177 176 173 168 167 179 187 181 186 191 194 191 189 185 183 186 193 193 190 187 185 189 195 194 188 185 185 182 179 170 168 167 158 157
242 243 243 247 249 230 198 186 181 178 175 173 171 173 181 189 189 190 191 190 191 194 190 188 193 199 198 196 198 198 200 201 194 190 185 185 183 179 173 171 170 167 167
239 238 238 241 237 216 194 184 180 176 175 175 174 176 181 187 191 191 189 190 191 196 199 197 199 202 202 199 199 206 210 207 202 196 189 185 182 179 175 173 171 166 167
235 235 234 233 229 208 190 181 177 174 172 175 176 177 180 185 192 193 189 188 192 197 201 203 205 204 203 205 208 208 208 207 206 199 188 182 181 181 175 173 171 170 165
Height
1480 1478 1475 1473 1469 1466 1462 1459 1455 1451 1447 1444 1442 1439 1438 1436 1436 1437 1438 1440 1442 1443 1445 1448 1450 1452 1453 1455 1456 1458 1460 1462 1463 1464 1465 1465 1465 1464 1463 1462 1461 1461 1460
1476 1474 1472 1470 1467 1464 1461 1457 1454 1450 1447 1444 1441 1439 1437 1435 1434 1434 1435 1437 1439 1441 1443 1445 1448 1450 1452 1454 1456 1457 1459 1461 1462 1463 1464 1464 1464 1464 1463 1462 1461 1460 1459
1473 1471 1469 1467 1464 1462 1459 1457 1454 1451 1448 1445 1442 1439 1437 1435 1434 1434 1435 1436 1438 1441 1443 1445 1448 1450 1452 1454 1456 1457 1459 1461 1462 1463 1465 1465 1465 1465 1464 1462 1461 1460 1459
1470 1468 1466 1465 1462 1460 1458 1456 1454 1451 1449 1446 1444 1441 1439 1437 1436 1436 1437 1438 1440 1443 1445 1448 1450 1452 1454 1456 1457 1458 1460 1462 1463 1465 1465 1466 1466 1465 1464 1463 1462 1461 1460
1466 1464 1463 1462 1460 1459 1457 1455 1454 1452 1450 1448 1446 1444 1442 1441 1440 1440 1441 1443 1445 1447 1450 1452 1453 1455 1457 1458 1459 1461 1463 1464 1465 1466 1467 1467 1466 1466 1465 1464 1463 1462 1460
1462 1460 1459 1459 1458 1457 1456 1455 1454 1453 1452 1450 1449 1447 1446 1444 1444 1445 1446 1448 1450 1451 1454 1455 1457 1458 1460 1461 1463 1465 1466 1466 1467 1468 1468 1468 1468 1468 1467 1466 1464 1462 1461
1457 1455 1455 1454 1454 1454 1454 1454 1453 1453 1453 1452 1451 1450 1449 1449 1449 1449 1450 1452 1453 1455 1457 1458 1460 1462 1463 1465 1466 1467 1467 1468 1470 1470 1469 1470 1470 1469 1468 1467 1465 1464 1463
1451 1450 1449 1449 1450 1450 1450 1451 1452 1452 1452 1452 1452 1452 1452 1452 1453 1454 1455 1456 1457 1459 1460 1462 1463 1465 1467 1468 1468 1469 1470 1470 1471 1471 1471 1471 1471 1471 1469 1468 1467 1465 1464
1445 1444 1443 1443 1444 1445 1446 1447 1449 1450 1451 1452 1452 1453 1454 1455 1456 1457 1458 1459 1460 1461 1463 1464 1466 1467 1468 1469 1470 1470 1471 1472 1472 1473 1473 1473 1472 1472 1470 1469 1467 1465 1464
1439 1437 1437 1437 1438 1439 1440 1442 1445 1447 1449 1450 1452 1453 1455 1456 1457 1458 1460 1461 1462 1463 1465 1466 1467 1468 1469 1470 1471 1471 1472 1473 1473 1474 1474 1474 1473 1472 1471 1469 1468 1466 1464
1433 1430 1429 1430 1431 1432 1435 1437 1439 1443 1446 1448 1450 1452 1454 1456 1457 1459 1460 1462 1463 1464 1466 1467 1468 1469 1470 1471 1472 1472 1473 1474 1474 1474 1474 1474 1474 1473 1472 1470 1468 1467 1465
1426 1422 1420 1420 1423 1425 1427 1430 1434 1437 1441 1444 1447 1449 1452 1454 1456 1458 1460 1462 1463 1465 1466 1468 1469 1470 1471 1472 1473 1474 1475 1475 1475 1475 1475 1475 1474 1474 1473 1472 1470 1468 1467
1419 1415 1413 1411 1414 1417 1419 1423 1426 1431 1435 1439 1442 1445 1448 1451 1454 1457 1459 1461 1463 1464 1466 1468 1469 1471 1472 1473 1474 1475 1475 1475 1475 1475 1475 1475 1475 1475 1474 1473 1472 1470 1468
1413 1409 1405 1403 1405 1408 1411 1415 1418 1423 1428 1433 1437 1440 1444 1448 1451 1454 1456 1459 1461 1463 1465 1467 1469 1471 1472 1474 1475 1476 1476 1476 1476 1476 1476 1476 1476 1476 1475 1474 1472 1471 1469
1407 1402 1398 1395 1395 1399 1403 1406 1410 1415 1420 1425 1430 1435 1439 1442 1447 1451 1454 1457 1459 1462 1464 1466 1468 1470 1472 1474 1475 1476 1476 1477 1477 1477 1477 1477 1477 1476 1476 1475 1474 1472 1470
1400 1396 1392 1388 1387 1390 1394 1399 1404 1409 1415 1421 1426 1431 1435 1440 1444 1448 1451 1455 1457 1460 1462 1464 1467 1469 1471 1473 1475 1476 1477 1477 1478 1478 1478 1478 1478 1477 1477 1476 1475 1473 1472
1394 1390 1385 1382 1379 1381 1386 1391 1396 1402 1409 1415 1421 1427 1432 1436 1441 1445 1448 1452 1455 1457 1460 1463 1465 1468 1470 1472 1474 1475 1476 1477 1478 1478 1478 1478 1478 1478 1477 1476 1475 1474 1473
1386 1383 1379 1375 1372 1374 1379 1384 1389 1395 1401 1408 1415 1422 1427 1433 1437 1441 1445 1448 1451 1454 1457 1460 1463 1465 1468 1470 1472 1474 1476 1477 1478 1478 1478 1478 1478 1478 1477 1476 1476 1474 1473
1378 1375 1371 1368 1367 1368 1372 1377 1383 1389 1395 1402 1409 1416 1422 1428 1433 1437 1441 1444 1447 1450 1454 1457 1461 1463 1466 1468 1470 1473 1474 1476 1477 1478 1478 1478 1478 1477 1477 1476 1475 1474 1473
1369 1367 1365 1362 1361 1362 1366 1371 1377 1383 1390 1396 1403 1410 1416 1422 1426 1431 1435 1439 1443 1447 1451 1454 1458 1461 1464 1466 1469 1471 1473 1474 1475 1476 1477 1477 1477 1476 1476 1475 1475 1474 1473
1360 1359 1357 1356 1355 1356 1360 1365 1371 1377 1384 1391 1398 1404 1410 1415 1420 1425 1430 1434 1439 1442 1446 1451 1454 1458 1461 1464 1466 1468 1470 1472 1473 1474 1474 1475 1475 1475 1474 1474 1473 1472 1472
1351 1351 1350 1349 1349 1350 1354 1360 1366 1373 1379 1386 1393 1400 1406 1411 1416 1421 1425 1430 1434 1438 1443 1447 1450 1454 1457 1460 1463 1465 1467 1469 1470 1471 1471 1472 1472 1472 1472 1471 1471 1470 1470
1343 1343 1343 1342 1343 1345 1349 1355 1362 1368 1375 1382 1388 1394 1400 1406 1411 1416 1420 1425 1429 1434 1438 1442 1446 1450 1453 1456 1459 1461 1463 1465 1466 1467 1468 1468 1469 1469 1469 1468 1468 1467 1467
1335 1335 1336 1336 1337 1339 1344 1350 1357 1364 1371 1377 1384 1390 1395 1401 1406 1411 1415 1420 1424 1428 1433 1437 1441 1445 1448 1452 1454 1457 1459 1461 1462 1463 1464 1464 1465 1465 1465 1465 1464 1464 1464
1328 1328 1329 1330 1332 1335 1340 1346 1353 1360 1367 1373 1380 1386 1391 1397 1402 1406 1410 1414 1419 1423 1427 1432 1436 1440 1444 1447 1450 1452 1455 1456 1458 1459 1460 1460 1460 1460 1460 1460 1460 1460 1460
1321 1322 1323 1325 1327 1331 1336 1343 1350 1357 1363 1370 1376 1382 1388 1393 1398 1402 1406 1410 1414 1418 1422 1427 1431 1435 1439 1442 1445 1447 1449 1451 1453 1454 1454 1455 1455 1455 1455 1455 1456 1456 1456